Theta_e
335 335 331 333 330 332 334 333 332 335 335 336 336 337 338 340 340 340 340 335 336 332
333 334 332 333 335 331 334 336 334 335 333 334 335 337 338 338 337 338 338 337 334 330
331 334 335 334 330 328 330 331 332 334 332 333 335 336 337 335 335 335 336 334 330 326
329 331 332 332 332 333 334 329 328 329 332 331 333 334 335 333 333 332 331 328 327 324
328 331 332 332 333 333 333 332 329 328 328 329 332 333 333 330 331 330 327 325 324 323
326 329 331 332 332 335 335 334 334 332 330 331 330 330 331 331 329 331 329 326 324 324
326 328 330 332 332 332 334 334 333 333 330 329 333 334 335 332 332 331 329 330 330 330
327 327 329 331 331 330 331 332 332 330 328 328 328 329 335 335 336 335 334 336 333 334
324 324 326 330 331 331 329 328 328 327 326 327 324 306 312 326 332 334 333 330 329 324
321 322 325 326 328 328 330 331 330 329 328 325 323 305 308 315 329 329 330 329 328 325
318 320 323 324 326 330 331 331 329 328 328 327 315 302 305 312 332 331 330 331 329 329
318 319 322 323 327 331 331 332 330 329 329 328 321 299 299 309 329 328 328 329 329 329
320 319 321 326 329 331 331 330 327 328 329 319 326 298 297 304 320 324 321 323 321 302
322 322 325 330 332 330 328 328 328 326 328 326 326 314 296 296 318 317 315 314 313 313
Wind_Speed
10 7 6 7 3 4 6 7 5 8 8 9 9 11 10 8 8 9 9 11 10 7
7 9 8 6 7 5 3 7 9 8 10 8 10 12 12 8 10 10 9 10 11 10
5 8 7 5 5 4 6 9 7 11 9 10 9 10 11 10 10 11 8 9 12 9
6 7 6 6 7 5 8 8 8 8 7 8 9 9 9 10 10 13 11 9 10 9
5 7 6 7 8 7 6 9 8 6 5 5 6 7 10 10 9 13 12 10 10 10
6 7 7 6 9 7 9 8 9 7 8 8 7 6 6 8 7 11 11 11 11 12
8 7 8 7 10 7 9 11 10 7 9 9 12 10 12 12 9 9 9 10 14 16
9 8 8 8 7 9 8 9 12 10 9 8 9 8 14 12 11 11 12 11 13 8
10 10 9 8 7 8 8 9 10 10 10 8 8 10 10 10 10 11 11 10 11 9
12 11 11 10 10 9 8 7 7 9 11 10 8 8 9 6 9 9 9 10 10 11
13 12 12 11 10 9 8 8 7 8 10 10 6 3 4 3 9 9 9 8 6 9
13 13 13 12 11 10 9 9 8 8 7 8 7 2 1 5 8 8 7 7 6 7
13 14 14 12 11 10 9 9 8 8 7 6 9 6 3 5 5 7 6 5 5 8
13 13 12 11 10 10 10 9 8 8 7 8 9 8 8 5 4 8 7 7 7 7
Wind_Direction
35 65 77 91 120 70 55 54 56 95 92 98 128 121 127 128 135 141 133 139 93 109
70 77 93 96 60 65 81 86 69 103 97 87 109 123 126 124 124 121 116 116 115 111
93 109 105 94 109 91 78 60 77 84 104 90 100 121 121 117 121 118 110 112 115 100
105 101 102 92 75 64 108 98 81 89 105 93 101 112 120 111 124 121 115 113 116 114
129 112 101 95 97 102 87 115 107 92 82 100 102 112 118 128 142 135 131 128 127 130
143 122 109 94 96 115 117 97 113 139 160 164 171 164 152 136 137 124 135 143 142 148
148 138 134 140 122 129 120 127 124 135 108 113 139 145 142 142 138 143 144 164 154 159
155 155 150 142 134 120 125 120 120 119 92 94 102 99 128 139 150 140 145 150 157 157
168 165 153 146 142 140 129 128 123 125 105 84 81 26 50 108 113 117 117 101 113 128
174 169 165 163 154 146 137 137 130 118 110 106 93 40 46 77 111 113 115 121 140 141
174 174 171 171 160 151 151 148 146 138 125 122 107 46 29 56 124 129 130 135 135 113
176 173 176 176 163 166 166 164 165 154 147 136 136 164 305 315 155 138 140 147 131 152
177 174 178 177 170 173 176 176 181 166 168 131 147 171 230 278 167 153 153 152 128 53
176 173 176 170 170 176 188 176 205 175 169 167 152 166 202 234 258 160 171 162 165 144